User: anonymous   Login
Location: Gradaro
(45.0833°N, 10.8833°E)
Time: 23:14:10
(UTC+00:00)
Language:

Cosmos 2082 Rocket - Orbit

View from above orbital plane
View from above orbital plane
View from above satellite
View from above satellite

Ground track
Ground track

The orbit data is extracted from the following two-line orbital elements,

1 20625U 90046B   21059.75641472  .00000221  00000-0  13958-3 0  9991
2 20625  70.9986 190.2231 0015661 218.7868 141.2131 14.14662461589115
Epoch (UTC): 28 February 2021 18:09:14
Eccentricity: 0.0015661
inclination: 70.9986°
perigee height: 832 km
apogee height: 855 km
right ascension of ascending node: 190.2231°
argument of perigee: 218.7868°
revolutions per day: 14.14662461
mean anomaly at epoch: 141.2131°
orbit number at epoch: 58911

The dashed part of the orbit path shows where the satellite is in the earth's shadow,  

DLR